Time,TemperatureF,DewpointF,PressureIn,WindDirection,WindDirectionDegrees,WindSpeedMPH,WindSpeedGustMPH,Humidity,HourlyPrecipIn,Conditions,Clouds,dailyrainin,SoftwareType,DateUTC
2013-01-07 00:02:00,30.0,20.0,30.05,WNW,282,0.0,-999.0,67,-99.99,,,-99.99,,2013-01-07 07:02:00,
2013-01-07 00:12:00,30.0,20.0,30.05,WNW,282,0.0,-999.0,67,-99.99,,,-99.99,,2013-01-07 07:12:00,
2013-01-07 00:22:00,30.0,20.0,30.05,WNW,282,0.0,-999.0,67,-99.99,,,-99.99,,2013-01-07 07:22:00,
2013-01-07 00:32:00,29.0,20.0,30.07,WNW,282,0.0,-999.0,69,-99.99,,,-99.99,,2013-01-07 07:32:00,
2013-01-07 00:42:00,29.0,20.0,30.07,WNW,282,0.0,-999.0,69,-99.99,,,-99.99,,2013-01-07 07:42:00,
2013-01-07 00:52:00,29.0,20.0,30.07,WNW,282,0.0,-999.0,70,-99.99,,,-99.99,,2013-01-07 07:52:00,
2013-01-07 01:02:00,29.0,20.0,30.06,WNW,282,0.0,-999.0,70,-99.99,,,-99.99,,2013-01-07 08:02:00,
2013-01-07 01:11:00,29.0,20.0,30.06,WNW,282,0.0,-999.0,70,-99.99,,,-99.99,,2013-01-07 08:11:00,
2013-01-07 01:22:00,29.0,20.0,30.06,WNW,282,0.0,-999.0,70,-99.99,,,-99.99,,2013-01-07 08:22:00,
2013-01-07 01:32:00,29.0,20.0,30.06,WNW,282,0.0,-999.0,70,-99.99,,,-99.99,,2013-01-07 08:32:00,
2013-01-07 01:42:00,29.0,20.0,30.06,WNW,282,0.0,-999.0,70,-99.99,,,-99.99,,2013-01-07 08:42:00,
2013-01-07 01:52:00,29.0,20.0,30.06,WNW,282,0.0,-999.0,70,-99.99,,,-99.99,,2013-01-07 08:52:00,
2013-01-07 02:02:00,29.0,20.0,30.06,WNW,282,0.0,-999.0,70,-99.99,,,-99.99,,2013-01-07 09:02:00,
2013-01-07 02:12:00,29.0,20.0,30.06,WNW,282,0.0,-999.0,70,-99.99,,,-99.99,,2013-01-07 09:12:00,
2013-01-07 02:22:00,29.0,20.0,30.06,WNW,282,0.0,-999.0,70,-99.99,,,-99.99,,2013-01-07 09:22:00,
2013-01-07 02:32:00,33.0,20.0,30.05,SE,135,0.0,-999.0,58,-99.99,,,-99.99,,2013-01-07 09:32:00,
2013-01-07 02:42:00,33.0,20.0,30.05,SE,135,0.0,-999.0,58,-99.99,,,-99.99,,2013-01-07 09:42:00,
2013-01-07 02:52:00,33.0,20.0,30.05,SE,135,0.0,-999.0,58,-99.99,,,-99.99,,2013-01-07 09:52:00,
2013-01-07 03:02:00,31.0,21.0,30.02,ESE,107,2.0,-999.0,67,-99.99,,,-99.99,,2013-01-07 10:02:00,
2013-01-07 03:11:00,30.0,21.0,30.03,ESE,107,0.0,-999.0,68,-99.99,,,-99.99,,2013-01-07 10:11:00,
2013-01-07 03:22:00,30.0,21.0,30.03,ESE,107,0.0,-999.0,68,-99.99,,,-99.99,,2013-01-07 10:22:00,
2013-01-07 03:32:00,29.0,21.0,30.02,ENE,78,0.0,-999.0,71,-99.99,,,-99.99,,2013-01-07 10:32:00,
2013-01-07 03:42:00,29.0,21.0,30.02,ENE,78,0.0,-999.0,71,-99.99,,,-99.99,,2013-01-07 10:42:00,
2013-01-07 03:52:00,28.0,21.0,30.03,ENE,78,0.0,-999.0,74,-99.99,,,-99.99,,2013-01-07 10:52:00,
2013-01-07 04:01:00,28.0,21.0,30.03,ENE,78,0.0,-999.0,75,-99.99,,,-99.99,,2013-01-07 11:01:00,
2013-01-07 04:12:00,28.0,21.0,30.03,ENE,78,0.0,-999.0,75,-99.99,,,-99.99,,2013-01-07 11:12:00,
2013-01-07 04:22:00,28.0,20.0,30.03,ENE,78,0.0,-999.0,73,-99.99,,,-99.99,,2013-01-07 11:22:00,
2013-01-07 04:32:00,27.0,20.0,30.04,ENE,78,0.0,-999.0,74,-99.99,,,-99.99,,2013-01-07 11:32:00,
2013-01-07 04:42:00,27.0,20.0,30.04,ENE,78,0.0,-999.0,74,-99.99,,,-99.99,,2013-01-07 11:42:00,
2013-01-07 04:53:00,26.0,19.0,30.01,ENE,78,0.0,-999.0,74,-99.99,,,-99.99,,2013-01-07 11:53:00,
2013-01-07 05:02:00,25.0,18.0,30.01,ENE,78,0.0,-999.0,75,-99.99,,,-99.99,,2013-01-07 12:02:00,
2013-01-07 05:12:00,23.0,17.0,30.01,ENE,78,0.0,-999.0,76,-99.99,,,-99.99,,2013-01-07 12:12:00,
2013-01-07 05:22:00,23.0,17.0,30.01,ENE,78,0.0,-999.0,76,-99.99,,,-99.99,,2013-01-07 12:22:00,
2013-01-07 05:32:00,22.0,16.0,30.01,ENE,78,1.0,-999.0,77,-99.99,,,-99.99,,2013-01-07 12:32:00,
2013-01-07 05:52:00,23.0,17.0,30.01,East,81,0.0,-999.0,77,-99.99,,,-99.99,,2013-01-07 12:52:00,
2013-01-07 06:02:00,23.0,17.0,30.01,East,81,0.0,-999.0,76,-99.99,,,-99.99,,2013-01-07 13:02:00,
2013-01-07 06:11:00,23.0,17.0,30.01,East,81,0.0,-999.0,76,-99.99,,,-99.99,,2013-01-07 13:11:00,
2013-01-07 06:22:00,23.0,17.0,30.01,East,81,0.0,-999.0,76,-99.99,,,-99.99,,2013-01-07 13:22:00,
2013-01-07 06:32:00,23.0,17.0,30.03,East,81,0.0,-999.0,79,-99.99,,,-99.99,,2013-01-07 13:32:00,
2013-01-07 06:42:00,23.0,17.0,30.03,East,81,0.0,-999.0,79,-99.99,,,-99.99,,2013-01-07 13:42:00,
2013-01-07 06:53:00,23.0,17.0,30.03,East,81,0.0,-999.0,79,-99.99,,,-99.99,,2013-01-07 13:53:00,
2013-01-07 07:03:00,23.0,17.0,30.03,SE,136,0.0,-999.0,78,-99.99,,,-99.99,,2013-01-07 14:03:00,
2013-01-07 07:12:00,23.0,17.0,30.03,SE,136,0.0,-999.0,78,-99.99,,,-99.99,,2013-01-07 14:12:00,
2013-01-07 07:22:00,21.0,14.0,30.03,SSE,155,0.0,-999.0,75,-99.99,,,-99.99,,2013-01-07 14:22:00,
2013-01-07 07:32:00,21.0,15.0,30.02,SSE,162,0.0,-999.0,78,-99.99,,,-99.99,,2013-01-07 14:32:00,
2013-01-07 07:42:00,21.0,15.0,30.02,SSE,162,0.0,-999.0,78,-99.99,,,-99.99,,2013-01-07 14:42:00,
2013-01-07 07:53:00,21.0,15.0,30.01,SSE,162,0.0,-999.0,78,-99.99,,,-99.99,,2013-01-07 14:53:00,
2013-01-07 08:02:00,21.0,15.0,30.01,SSE,162,0.0,-999.0,78,-99.99,,,-99.99,,2013-01-07 15:02:00,
2013-01-07 08:12:00,21.0,15.0,30.01,SSE,162,0.0,-999.0,78,-99.99,,,-99.99,,2013-01-07 15:12:00,
2013-01-07 08:22:00,19.0,13.0,30.02,SSE,162,0.0,-999.0,78,-99.99,,,-99.99,,2013-01-07 15:22:00,
2013-01-07 08:33:00,18.0,13.0,29.99,SSE,162,0.0,-999.0,79,-99.99,,,-99.99,,2013-01-07 15:33:00,
2013-01-07 08:42:00,18.0,13.0,29.99,SSE,162,0.0,-999.0,79,-99.99,,,-99.99,,2013-01-07 15:42:00,
2013-01-07 08:53:00,18.0,13.0,29.99,SSE,162,0.0,-999.0,79,-99.99,,,-99.99,,2013-01-07 15:53:00,
2013-01-07 09:02:00,18.0,13.0,29.99,SSE,162,0.0,-999.0,79,-99.99,,,-99.99,,2013-01-07 16:02:00,
2013-01-07 09:12:00,18.0,13.0,29.99,SSE,162,0.0,-999.0,79,-99.99,,,-99.99,,2013-01-07 16:12:00,
2013-01-07 09:23:00,17.0,12.0,29.99,SSE,162,0.0,-999.0,79,-99.99,,,-99.99,,2013-01-07 16:23:00,
2013-01-07 09:33:00,18.0,13.0,29.99,SSE,162,0.0,-999.0,80,-99.99,,,-99.99,,2013-01-07 16:33:00,
2013-01-07 09:43:00,18.0,13.0,29.99,SSE,162,0.0,-999.0,80,-99.99,,,-99.99,,2013-01-07 16:43:00,
2013-01-07 09:53:00,20.0,15.0,30.01,SSE,162,0.0,-999.0,79,-99.99,,,-99.99,,2013-01-07 16:53:00,
2013-01-07 10:02:00,21.0,16.0,30.00,SSE,162,0.0,-999.0,79,-99.99,,,-99.99,,2013-01-07 17:02:00,
2013-01-07 10:12:00,21.0,16.0,30.00,SSE,162,0.0,-999.0,79,-99.99,,,-99.99,,2013-01-07 17:12:00,
2013-01-07 10:22:00,21.0,16.0,30.00,SSE,162,0.0,-999.0,79,-99.99,,,-99.99,,2013-01-07 17:22:00,
2013-01-07 10:32:00,23.0,17.0,29.99,SSE,162,0.0,-999.0,78,-99.99,,,-99.99,,2013-01-07 17:32:00,
2013-01-07 10:42:00,23.0,17.0,29.99,SSE,162,0.0,-999.0,78,-99.99,,,-99.99,,2013-01-07 17:42:00,
2013-01-07 10:53:00,25.0,19.0,30.00,SSE,162,0.0,-999.0,78,-99.99,,,-99.99,,2013-01-07 17:53:00,
2013-01-07 11:02:00,25.0,19.0,30.00,SSE,162,0.0,-999.0,77,-99.99,,,-99.99,,2013-01-07 18:02:00,
2013-01-07 11:12:00,25.0,19.0,30.00,SSE,162,0.0,-999.0,77,-99.99,,,-99.99,,2013-01-07 18:12:00,
2013-01-07 11:23:00,25.0,19.0,29.99,SSE,162,0.0,-999.0,76,-99.99,,,-99.99,,2013-01-07 18:23:00,
2013-01-07 11:32:00,26.0,20.0,29.99,SSE,162,0.0,-999.0,77,-99.99,,,-99.99,,2013-01-07 18:32:00,
2013-01-07 11:42:00,26.0,20.0,29.99,SSE,162,0.0,-999.0,77,-99.99,,,-99.99,,2013-01-07 18:42:00,
2013-01-07 11:52:00,27.0,20.0,29.97,SSE,162,0.0,-999.0,75,-99.99,,,-99.99,,2013-01-07 18:52:00,
2013-01-07 12:02:00,28.0,21.0,29.95,SSE,162,0.0,-999.0,74,-99.99,,,-99.99,,2013-01-07 19:02:00,
2013-01-07 12:12:00,28.0,21.0,29.95,SSE,162,0.0,-999.0,74,-99.99,,,-99.99,,2013-01-07 19:12:00,
2013-01-07 12:22:00,29.0,21.0,29.93,SSE,162,0.0,-999.0,71,-99.99,,,-99.99,,2013-01-07 19:22:00,
2013-01-07 12:32:00,29.0,20.0,29.93,SSE,162,0.0,-999.0,70,-99.99,,,-99.99,,2013-01-07 19:32:00,
2013-01-07 12:42:00,29.0,20.0,29.93,SSE,162,0.0,-999.0,70,-99.99,,,-99.99,,2013-01-07 19:42:00,
2013-01-07 12:53:00,30.0,22.0,29.91,SSE,162,0.0,-999.0,71,-99.99,,,-99.99,,2013-01-07 19:53:00,
2013-01-07 13:02:00,30.0,22.0,29.89,SSE,162,0.0,-999.0,71,-99.99,,,-99.99,,2013-01-07 20:02:00,
2013-01-07 13:12:00,30.0,22.0,29.89,SSE,162,0.0,-999.0,71,-99.99,,,-99.99,,2013-01-07 20:12:00,
2013-01-07 13:22:00,30.0,22.0,29.89,SSE,162,0.0,-999.0,71,-99.99,,,-99.99,,2013-01-07 20:22:00,
2013-01-07 13:32:00,30.0,22.0,29.86,NE,45,0.0,-999.0,73,-99.99,,,-99.99,,2013-01-07 20:32:00,
2013-01-07 13:42:00,30.0,22.0,29.86,NE,45,0.0,-999.0,73,-99.99,,,-99.99,,2013-01-07 20:42:00,
2013-01-07 13:53:00,30.0,22.0,29.86,NE,45,0.0,-999.0,73,-99.99,,,-99.99,,2013-01-07 20:53:00,
2013-01-07 14:02:00,30.0,22.0,29.86,NE,45,0.0,-999.0,73,-99.99,,,-99.99,,2013-01-07 21:02:00,
2013-01-07 14:12:00,30.0,22.0,29.86,NE,45,0.0,-999.0,73,-99.99,,,-99.99,,2013-01-07 21:12:00,
2013-01-07 14:33:00,32.0,23.0,29.84,NNE,28,0.0,-999.0,70,-99.99,,,-99.99,,2013-01-07 21:33:00,
2013-01-07 14:43:00,32.0,23.0,29.84,NNE,28,0.0,-999.0,70,-99.99,,,-99.99,,2013-01-07 21:43:00,
2013-01-07 14:53:00,32.0,23.0,29.85,NNE,28,0.0,-999.0,68,-99.99,,,-99.99,,2013-01-07 21:53:00,
2013-01-07 15:02:00,32.0,23.0,29.85,NNE,28,0.0,-999.0,68,-99.99,,,-99.99,,2013-01-07 22:02:00,
2013-01-07 15:11:00,32.0,23.0,29.85,NNE,28,0.0,-999.0,68,-99.99,,,-99.99,,2013-01-07 22:11:00,
2013-01-07 15:22:00,32.0,23.0,29.85,NNE,27,0.0,-999.0,69,-99.99,,,-99.99,,2013-01-07 22:22:00,
2013-01-07 15:33:00,32.0,23.0,29.85,NNE,27,0.0,-999.0,69,-99.99,,,-99.99,,2013-01-07 22:33:00,
2013-01-07 15:43:00,32.0,23.0,29.85,NNE,27,0.0,-999.0,69,-99.99,,,-99.99,,2013-01-07 22:43:00,
2013-01-07 15:53:00,32.0,23.0,29.85,NNE,27,0.0,-999.0,69,-99.99,,,-99.99,,2013-01-07 22:53:00,
2013-01-07 16:02:00,32.0,23.0,29.85,NNE,27,0.0,-999.0,69,-99.99,,,-99.99,,2013-01-07 23:02:00,
2013-01-07 16:23:00,32.0,22.0,29.82,North,349,0.0,-999.0,67,-99.99,,,-99.99,,2013-01-07 23:23:00,
2013-01-07 16:33:00,32.0,23.0,29.83,North,349,0.0,-999.0,69,-99.99,,,-99.99,,2013-01-07 23:33:00,
2013-01-07 16:43:00,32.0,23.0,29.83,North,349,0.0,-999.0,69,-99.99,,,-99.99,,2013-01-07 23:43:00,
2013-01-07 16:53:00,31.0,22.0,29.80,WNW,301,0.0,-999.0,69,-99.99,,,-99.99,,2013-01-07 23:53:00,
2013-01-07 17:02:00,30.0,21.0,29.82,North,351,1.0,-999.0,69,-99.99,,,-99.99,,2013-01-08 00:02:00,
2013-01-07 17:11:00,30.0,21.0,29.82,North,351,1.0,-999.0,69,-99.99,,,-99.99,,2013-01-08 00:11:00,
2013-01-07 17:22:00,29.0,21.0,29.82,North,351,0.0,-999.0,71,-99.99,,,-99.99,,2013-01-08 00:22:00,
2013-01-07 17:32:00,29.0,21.0,29.83,North,351,0.0,-999.0,72,-99.99,,,-99.99,,2013-01-08 00:32:00,
2013-01-07 17:42:00,29.0,21.0,29.83,North,351,0.0,-999.0,72,-99.99,,,-99.99,,2013-01-08 00:42:00,
2013-01-07 17:52:00,27.0,20.0,29.80,North,351,0.0,-999.0,74,-99.99,,,-99.99,,2013-01-08 00:52:00,
2013-01-07 18:02:00,27.0,20.0,29.81,North,351,0.0,-999.0,73,-99.99,,,-99.99,,2013-01-08 01:02:00,
2013-01-07 18:11:00,27.0,20.0,29.81,North,351,0.0,-999.0,73,-99.99,,,-99.99,,2013-01-08 01:11:00,
2013-01-07 18:22:00,27.0,20.0,29.81,North,351,0.0,-999.0,73,-99.99,,,-99.99,,2013-01-08 01:22:00,
2013-01-07 18:32:00,26.0,19.0,29.80,North,351,0.0,-999.0,74,-99.99,,,-99.99,,2013-01-08 01:32:00,
2013-01-07 19:02:00,26.0,20.0,29.80,North,351,0.0,-999.0,77,-99.99,,,-99.99,,2013-01-08 02:02:00,
2013-01-07 19:22:00,27.0,21.0,29.80,NNW,329,0.0,-999.0,77,-99.99,,,-99.99,,2013-01-08 02:22:00,
2013-01-07 19:32:00,27.0,20.0,29.82,NNW,329,0.0,-999.0,76,-99.99,,,-99.99,,2013-01-08 02:32:00,
2013-01-07 19:53:00,28.0,21.0,29.83,NNW,329,0.0,-999.0,75,-99.99,,,-99.99,,2013-01-08 02:53:00,
2013-01-07 20:02:00,29.0,22.0,29.82,SSW,192,0.0,-999.0,75,-99.99,,,-99.99,,2013-01-08 03:02:00,
2013-01-07 20:12:00,29.0,22.0,29.82,SSW,192,0.0,-999.0,75,-99.99,,,-99.99,,2013-01-08 03:12:00,
2013-01-07 20:22:00,29.0,21.0,29.82,WSW,246,1.0,-999.0,73,-99.99,,,-99.99,,2013-01-08 03:22:00,
2013-01-07 20:32:00,29.0,21.0,29.82,WSW,246,0.0,-999.0,72,-99.99,,,-99.99,,2013-01-08 03:32:00,
2013-01-07 20:42:00,29.0,21.0,29.82,WSW,246,0.0,-999.0,72,-99.99,,,-99.99,,2013-01-08 03:42:00,
2013-01-07 20:53:00,32.0,24.0,29.81,West,269,1.0,-999.0,73,-99.99,,,-99.99,,2013-01-08 03:53:00,
2013-01-07 21:02:00,41.0,27.0,29.81,WSW,250,7.0,-999.0,57,-99.99,,,-99.99,,2013-01-08 04:02:00,
2013-01-07 21:11:00,41.0,27.0,29.81,WSW,250,7.0,-999.0,57,-99.99,,,-99.99,,2013-01-08 04:11:00,
2013-01-07 21:22:00,41.0,27.0,29.81,WSW,250,7.0,-999.0,57,-99.99,,,-99.99,,2013-01-08 04:22:00,
2013-01-07 21:32:00,43.0,27.0,29.80,WSW,255,11.0,-999.0,53,-99.99,,,-99.99,,2013-01-08 04:32:00,
2013-01-07 21:42:00,43.0,27.0,29.80,WSW,255,11.0,-999.0,53,-99.99,,,-99.99,,2013-01-08 04:42:00,
2013-01-07 21:52:00,42.0,26.0,29.80,WSW,257,6.0,-999.0,53,-99.99,,,-99.99,,2013-01-08 04:52:00,
2013-01-07 22:03:00,42.0,26.0,29.80,West,267,4.0,-999.0,53,-99.99,,,-99.99,,2013-01-08 05:03:00,
2013-01-07 22:12:00,42.0,26.0,29.80,West,267,4.0,-999.0,53,-99.99,,,-99.99,,2013-01-08 05:12:00,
2013-01-07 22:22:00,42.0,27.0,29.80,WSW,257,3.0,-999.0,54,-99.99,,,-99.99,,2013-01-08 05:22:00,
2013-01-07 22:32:00,42.0,27.0,29.80,WSW,257,3.0,-999.0,54,-99.99,,,-99.99,,2013-01-08 05:32:00,
2013-01-07 22:42:00,42.0,27.0,29.80,WSW,257,3.0,-999.0,54,-99.99,,,-99.99,,2013-01-08 05:42:00,
2013-01-07 22:53:00,40.0,27.0,29.80,WSW,248,0.0,-999.0,59,-99.99,,,-99.99,,2013-01-08 05:53:00,
2013-01-07 23:02:00,39.0,27.0,29.80,SSW,198,0.0,-999.0,62,-99.99,,,-99.99,,2013-01-08 06:02:00,
2013-01-07 23:12:00,39.0,27.0,29.80,SSW,198,0.0,-999.0,62,-99.99,,,-99.99,,2013-01-08 06:12:00,
2013-01-07 23:22:00,39.0,27.0,29.81,West,263,1.0,-999.0,62,-99.99,,,-99.99,,2013-01-08 06:22:00,
2013-01-07 23:32:00,41.0,28.0,29.79,West,270,14.0,-999.0,59,-99.99,,,-99.99,,2013-01-08 06:32:00,
2013-01-07 23:42:00,41.0,28.0,29.79,West,270,14.0,-999.0,59,-99.99,,,-99.99,,2013-01-08 06:42:00,
2013-01-07 23:52:00,40.0,29.0,29.79,WNW,283,9.0,-999.0,65,-99.99,,,-99.99,,2013-01-08 06:52:00,